Find Starlink 35149

NORAD ID: 65512 Int'l Des: 2025-198 Owner: SPXS Country: US Constellation: starlink operational
LEOCIRCULAR

リアルタイム位置

3D地球を読み込み中...

Starlink 35149について

説明を読み込み中...

次回通過

Passes for default location (London). Set your location on the main map for personalized predictions.

高度履歴

Loading altitude history...

軌道要素

1 65512U 25198W 26107.15326522 .00011508 00000-0 40004-3 0 9992
2 65512 53.1595 92.0051 0001322 81.6060 278.5091 15.30202618 34518
Epoch: Apr 17, 2026 • Age: 16 hours

現在のステータス

高度 477.5 km
速度 7.63 km/s
衛星直下点 36.84°N, 90.08°E
打ち上げ日 Sep 5, 2025
運用期間 0.6 years
タイプ internet

技術仕様

分類 Payload
質量 575.00 kg
乾燥質量 530.00 kg
総質量 575.00 kg
長さ 0.30 m
直径 4.10 m
スパン 29.00 m
形状 Box + pan
製造者 SPXS
バスタイプ Starlink V2MO
フェーズステータス In Orbit
所有者/国 SPXS/US

Most Searched